GW4745 Weather Reports


Display with metric or nautical units.
time (UTC)temp
F
wind
direction
speed
MPH
gust
MPH
rain 1hr
in
rain 24hr
in
rain mn
in
humidity
%
barometer
mb
20260906064601 70 0 0.0 0.0 0.00 0.32 0.00 95 1012.5
20260906063101 70 150 0.0 2.0 0.00 0.32 0.00 95 1012.7
20260906061610 70 0 0.0 0.0 0.00 0.32 0.00 94 1012.9
20260906054605 71 150 1.0 2.0 0.00 0.32 0.00 93 1013.0
20260906053101 71 150 1.0 2.0 0.00 0.32 0.00 93 1013.0
20260906051606 71 150 1.0 2.0 0.00 0.32 0.00 93 1013.1
20260906050110 71 150 0.0 0.0 0.00 0.32 0.00 95 1013.2
20260906044602 72 0 0.0 1.0 0.00 0.32 0.00 94 1013.4
20260906043059 72 150 1.0 1.0 0.00 0.32 0.00 95 1013.4
20260906041601 72 0 0.0 0.0 0.00 0.32 0.00 95 1013.5
20260906040105 72 0 0.0 0.0 0.00 0.32 0.00 94 1013.7
20260906034606 72 0 0.0 0.0 0.00 0.32 0.32 93 1013.7
20260906033101 73 0 0.0 1.0 0.00 0.32 0.32 93 1013.7
20260906031607 73 150 0.0 1.0 0.00 0.32 0.32 93 1013.8
20260906030105 73 150 0.0 2.0 0.00 0.32 0.32 94 1013.6
20260906024602 73 150 1.0 1.0 0.00 0.32 0.32 94 1013.5
20260906023102 73 0 0.0 0.0 0.00 0.32 0.32 94 1013.4
20260906021607 73 0 0.0 0.0 0.00 0.32 0.32 93 1013.2
20260906020108 74 0 0.0 0.0 0.00 0.32 0.32 92 1013.2
20260906014607 74 0 0.0 0.0 0.00 0.32 0.32 91 1013.3
20260906013104 75 0 0.0 1.0 0.00 0.32 0.32 91 1013.3
20260906011603 75 0 0.0 0.0 0.00 0.32 0.32 89 1012.9
20260906010101 75 0 0.0 0.0 0.00 0.32 0.32 90 1013.0
20260906004605 76 0 0.0 0.0 0.00 0.32 0.32 89 1013.0
20260906003105 77 0 0.0 0.0 0.00 0.32 0.32 88 1012.7
20260906001605 77 150 0.0 2.0 0.00 0.32 0.32 87 1012.3
20260905234601 80 0 0.0 0.0 0.00 0.32 0.32 80 1012.0
20260905233120 83 0 0.0 0.0 0.00 0.32 0.32 74 1012.0
20260905231604 84 0 0.0 1.0 0.00 0.32 0.32 72 1011.9
20260905230108 85 150 0.0 2.0 0.00 0.32 0.32 70 1011.9
20260905224608 85 0 0.0 0.0 0.00 0.32 0.32 69 1011.9
20260905223103 85 0 0.0 2.0 0.00 0.32 0.32 70 1012.0
20260905221608 85 150 1.0 4.0 0.00 0.32 0.32 69 1011.9
20260905220110 84 150 1.0 5.0 0.00 0.32 0.32 71 1011.8
20260905214602 83 150 2.0 7.0 0.00 0.32 0.32 73 1012.1
20260905213105 82 150 3.0 6.0 0.00 0.32 0.32 74 1012.6
20260905211630 82 150 3.0 6.0 0.00 0.32 0.32 77 1012.4
20260905210118 80 150 2.0 6.0 0.00 0.32 0.32 83 1012.5
20260905204608 79 0 0.0 5.0 0.00 0.32 0.32 84 1012.4
20260905203119 79 0 0.0 6.0 0.00 0.32 0.32 85 1012.5
20260905201602 79 150 0.0 5.0 0.00 0.32 0.32 87 1012.5
20260905200104 79 150 0.0 3.0 0.00 0.32 0.32 87 1012.8
20260905194606 79 0 0.0 2.0 0.00 0.32 0.32 87 1013.0
20260905193105 78 150 3.0 4.0 0.00 0.32 0.32 86 1012.9
20260905191605 78 150 0.0 1.0 0.00 0.32 0.32 85 1012.9
20260905184603 75 150 1.0 3.0 0.10 0.32 0.32 93 1012.3
20260905183104 73 150 1.0 4.0 0.32 0.32 0.32 93 1012.2
20260905181611 72 150 1.0 2.0 0.32 0.32 0.32 93 1013.2
20260905180109 73 150 4.0 9.0 0.32 0.32 0.32 88 1013.3
20260905174606 74 150 3.0 16.0 0.21 0.21 0.21 83 1015.3
20260905173102 91 150 3.0 7.0 0.00 0.00 0.00 57 1014.1
20260905171601 92 150 3.0 9.0 0.00 0.00 0.00 56 1013.6
20260905170106 93 150 4.0 9.0 0.00 0.00 0.00 53 1014.1
20260905164603 93 150 3.0 8.0 0.00 0.00 0.00 52 1014.1
20260905163108 92 150 4.0 6.0 0.00 0.00 0.00 52 1014.3
20260905161559 92 150 4.0 9.0 0.00 0.00 0.00 54 1014.3
20260905160137 92 150 5.0 9.0 0.00 0.00 0.00 58 1014.6
20260905154605 90 150 5.0 9.0 0.00 0.00 0.00 59 1014.6
20260905153103 90 150 2.0 5.0 0.00 0.00 0.00 60 1014.5
20260905151609 90 150 1.0 5.0 0.00 0.00 0.00 61 1014.5
20260905150103 89 150 2.0 5.0 0.00 0.00 0.00 62 1014.5
20260905144602 88 150 2.0 5.0 0.00 0.00 0.00 66 1014.7
20260905143104 87 150 2.0 4.0 0.00 0.00 0.00 67 1014.6
20260905141603 86 150 2.0 4.0 0.00 0.00 0.00 69 1014.6
20260905140106 85 150 0.0 5.0 0.00 0.00 0.00 70 1014.5
20260905134606 84 150 2.0 4.0 0.00 0.00 0.00 71 1014.7
20260905133101 83 150 1.0 4.0 0.00 0.00 0.00 74 1014.7
20260905131606 81 150 0.0 3.0 0.00 0.00 0.00 78 1014.8
20260905130101 80 150 0.0 2.0 0.00 0.00 0.00 79 1015.0
20260905124602 78 150 0.0 4.0 0.00 0.00 0.00 82 1015.0
20260905123103 77 0 0.0 0.0 0.00 0.00 0.00 85 1015.0
20260905121603 76 0 0.0 0.0 0.00 0.00 0.00 86 1014.9
20260905120119 74 0 0.0 0.0 0.00 0.00 0.00 90 1014.6
20260905114600 72 150 0.0 0.0 0.00 0.00 0.00 92 1014.5
20260905113104 71 0 0.0 0.0 0.00 0.00 0.00 94 1014.5
20260905111614 70 0 0.0 0.0 0.00 0.00 0.00 95 1014.3
20260905110106 70 0 0.0 0.0 0.00 0.00 0.00 95 1014.0
20260905104603 70 0 0.0 0.0 0.00 0.00 0.00 94 1013.9
20260905103102 70 0 0.0 0.0 0.00 0.00 0.00 94 1014.0
20260905101603 70 0 0.0 0.0 0.00 0.00 0.00 93 1013.8
20260905094602 70 0 0.0 1.0 0.00 0.00 0.00 94 1013.7
20260905093101 71 0 0.0 0.0 0.00 0.00 0.00 94 1013.6
20260905091624 71 150 0.0 1.0 0.00 0.00 0.00 94 1013.6
20260905090120 71 150 1.0 1.0 0.00 0.00 0.00 94 1013.7
20260905084610 71 150 0.0 0.0 0.00 0.00 0.00 94 1013.8
20260905083100 71 0 0.0 2.0 0.00 0.00 0.00 95 1014.1
20260905081603 71 150 1.0 2.0 0.00 0.00 0.00 94 1014.1
20260905080105 72 0 0.0 0.0 0.00 0.00 0.00 94 1014.4
20260905074603 72 0 0.0 0.0 0.00 0.00 0.00 93 1014.5
20260905073104 72 0 0.0 0.0 0.00 0.00 0.00 93 1014.4
20260905071603 72 150 1.0 1.0 0.00 0.00 0.00 92 1014.5
20260905070112 73 150 0.0 0.0 0.00 0.00 0.00 91 1014.6